| time (UTC) | temp C | wind direction | speed KPH | gust KPH | rain 1hr cm | rain 24hr cm | rain mn cm | humidity % | barometer mb |
| 20260506035555 | 15 | 9 | 1.6 | 17.7 | 0.00 | 0.00 | 0.00 | 78 | 1010.0 |
| 20260506035055 | 15 | 333 | 4.8 | 17.7 | 0.00 | 0.00 | 0.00 | 78 | 1009.9 |
| 20260506034557 | 16 | 317 | 4.8 | 12.9 | 0.00 | 0.00 | 0.00 | 78 | 1009.9 |
| 20260506034057 | 16 | 336 | 3.2 | 11.3 | 0.00 | 0.00 | 0.00 | 78 | 1009.7 |
| 20260506033557 | 16 | 30 | 4.8 | 14.5 | 0.00 | 0.00 | 0.00 | 78 | 1009.9 |
| 20260506033057 | 16 | 18 | 3.2 | 14.5 | 0.00 | 0.00 | 0.00 | 77 | 1009.6 |
| 20260506032555 | 16 | 29 | 3.2 | 14.5 | 0.00 | 0.00 | 0.00 | 77 | 1009.5 |
| 20260506032055 | 16 | 17 | 3.2 | 14.5 | 0.00 | 0.00 | 0.00 | 77 | 1009.4 |
| 20260506031558 | 16 | 26 | 3.2 | 11.3 | 0.00 | 0.00 | 0.00 | 77 | 1009.4 |
| 20260506031054 | 16 | 351 | 3.2 | 16.1 | 0.00 | 0.00 | 0.00 | 77 | 1009.4 |
| 20260506030557 | 16 | 335 | 3.2 | 16.1 | 0.00 | 0.00 | 0.00 | 77 | 1009.4 |
| 20260506030059 | 16 | 13 | 4.8 | 16.1 | 0.00 | 0.00 | 0.00 | 77 | 1009.4 |
| 20260506025555 | 16 | 17 | 3.2 | 12.9 | 0.00 | 0.00 | 0.00 | 77 | 1009.3 |
| 20260506025058 | 16 | 149 | 3.2 | 14.5 | 0.00 | 0.00 | 0.00 | 77 | 1009.4 |
| 20260506024555 | 17 | 11 | 3.2 | 14.5 | 0.00 | 0.00 | 0.00 | 77 | 1009.1 |
| 20260506024055 | 17 | 327 | 6.4 | 14.5 | 0.00 | 0.00 | 0.00 | 76 | 1008.9 |
| 20260506023556 | 17 | 347 | 3.2 | 11.3 | 0.00 | 0.00 | 0.00 | 76 | 1008.9 |
| 20260506023109 | 17 | 291 | 3.2 | 11.3 | 0.00 | 0.00 | 0.00 | 75 | 1008.7 |
| 20260506022555 | 17 | 360 | 3.2 | 14.5 | 0.00 | 0.00 | 0.00 | 75 | 1008.6 |
| 20260506022055 | 17 | 349 | 3.2 | 14.5 | 0.00 | 0.00 | 0.00 | 75 | 1008.4 |
| 20260506021617 | 17 | 31 | 4.8 | 14.5 | 0.00 | 0.00 | 0.00 | 74 | 1008.5 |
| 20260506021054 | 17 | 348 | 3.2 | 12.9 | 0.00 | 0.00 | 0.00 | 74 | 1008.0 |
| 20260506020555 | 18 | 32 | 4.8 | 12.9 | 0.00 | 0.00 | 0.00 | 74 | 1007.9 |
| 20260506020107 | 18 | 0 | 3.2 | 12.9 | 0.00 | 0.00 | 0.00 | 73 | 1007.8 |
| 20260506015555 | 18 | 138 | 4.8 | 12.9 | 0.00 | 0.00 | 0.00 | 73 | 1007.6 |
| 20260506015057 | 18 | 323 | 3.2 | 9.7 | 0.00 | 0.00 | 0.00 | 74 | 1007.5 |
| 20260506014604 | 18 | 0 | 0.0 | 9.7 | 0.00 | 0.00 | 0.00 | 74 | 1007.6 |
| 20260506014059 | 19 | 0 | 1.6 | 9.7 | 0.00 | 0.00 | 0.00 | 74 | 1007.6 |
| 20260506013555 | 19 | 0 | 0.0 | 4.8 | 0.00 | 0.00 | 0.00 | 73 | 1007.3 |
| 20260506013107 | 19 | 0 | 0.0 | 4.8 | 0.00 | 0.00 | 0.00 | 73 | 1007.1 |
| 20260506012555 | 19 | 333 | 0.0 | 6.4 | 0.00 | 0.00 | 0.00 | 72 | 1007.0 |
| 20260506012054 | 19 | 54 | 0.0 | 12.9 | 0.00 | 0.00 | 0.00 | 72 | 1007.0 |
| 20260506011617 | 19 | 61 | 1.6 | 12.9 | 0.00 | 0.00 | 0.00 | 72 | 1007.1 |
| 20260506011055 | 19 | 0 | 3.2 | 12.9 | 0.00 | 0.00 | 0.00 | 71 | 1006.7 |
| 20260506010555 | 20 | 22 | 1.6 | 8.0 | 0.00 | 0.00 | 0.00 | 71 | 1006.4 |
| 20260506010059 | 20 | 337 | 1.6 | 9.7 | 0.00 | 0.00 | 0.00 | 70 | 1006.2 |
| 20260506005558 | 20 | 34 | 3.2 | 9.7 | 0.00 | 0.00 | 0.00 | 70 | 1006.1 |
| 20260506005054 | 20 | 5 | 1.6 | 14.5 | 0.00 | 0.00 | 0.00 | 70 | 1006.3 |
| 20260506004558 | 20 | 38 | 3.2 | 14.5 | 0.00 | 0.00 | 0.00 | 70 | 1006.3 |
| 20260506004054 | 20 | 15 | 4.8 | 14.5 | 0.00 | 0.00 | 0.00 | 69 | 1006.3 |
| 20260506003555 | 20 | 325 | 3.2 | 17.7 | 0.00 | 0.00 | 0.00 | 69 | 1006.2 |
| 20260506003105 | 21 | 9 | 4.8 | 17.7 | 0.00 | 0.00 | 0.00 | 69 | 1006.1 |
| 20260506002623 | 21 | 12 | 3.2 | 9.7 | 0.00 | 0.00 | 0.00 | 69 | 1006.1 |
| 20260506002055 | 21 | 34 | 3.2 | 14.5 | 0.00 | 0.00 | 0.00 | 69 | 1005.9 |
| 20260506001556 | 21 | 307 | 3.2 | 14.5 | 0.00 | 0.00 | 0.00 | 68 | 1005.8 |
| 20260506001055 | 21 | 32 | 3.2 | 16.1 | 0.00 | 0.00 | 0.00 | 68 | 1005.8 |
| 20260506000555 | 21 | 26 | 4.8 | 16.1 | 0.00 | 0.00 | 0.00 | 67 | 1006.0 |
| 20260506000100 | 22 | 360 | 4.8 | 14.5 | 0.00 | 0.00 | 0.00 | 68 | 1006.1 |
| 20260505235554 | 22 | 351 | 3.2 | 14.5 | 0.00 | 0.00 | 0.00 | 67 | 1005.9 |
| 20260505235056 | 22 | 355 | 3.2 | 14.5 | 0.00 | 0.00 | 0.00 | 67 | 1005.7 |
| 20260505234556 | 22 | 355 | 3.2 | 14.5 | 0.00 | 0.00 | 0.00 | 67 | 1005.7 |
| 20260505234054 | 22 | 316 | 3.2 | 17.7 | 0.00 | 0.00 | 0.00 | 66 | 1005.7 |
| 20260505233555 | 22 | 14 | 4.8 | 17.7 | 0.00 | 0.00 | 0.00 | 65 | 1005.8 |
| 20260505233104 | 23 | 13 | 3.2 | 17.7 | 0.00 | 0.00 | 0.00 | 65 | 1005.6 |
| 20260505232555 | 23 | 360 | 4.8 | 17.7 | 0.00 | 0.00 | 0.00 | 65 | 1005.6 |
| 20260505232056 | 23 | 19 | 4.8 | 14.5 | 0.00 | 0.00 | 0.00 | 65 | 1005.6 |
| 20260505231611 | 23 | 336 | 3.2 | 14.5 | 0.00 | 0.00 | 0.00 | 64 | 1005.5 |
| 20260505231056 | 24 | 5 | 3.2 | 14.5 | 0.00 | 0.00 | 0.00 | 64 | 1005.7 |
| 20260505230555 | 25 | 5 | 6.4 | 24.1 | 0.00 | 0.00 | 0.00 | 62 | 1005.2 |
| 20260505230054 | 25 | 304 | 6.4 | 24.1 | 0.00 | 0.00 | 0.00 | 62 | 1005.5 |
| 20260505225555 | 25 | 36 | 4.8 | 17.7 | 0.00 | 0.00 | 0.00 | 61 | 1005.4 |
| 20260505225055 | 26 | 252 | 4.8 | 16.1 | 0.00 | 0.00 | 0.00 | 59 | 1005.6 |
| 20260505224603 | 26 | 19 | 4.8 | 16.1 | 0.00 | 0.00 | 0.00 | 59 | 1005.2 |
| 20260505224055 | 26 | 286 | 4.8 | 16.1 | 0.00 | 0.00 | 0.00 | 59 | 1005.1 |
| 20260505223554 | 27 | 30 | 3.2 | 12.9 | 0.00 | 0.00 | 0.00 | 58 | 1005.0 |
| 20260505223059 | 27 | 280 | 4.8 | 14.5 | 0.00 | 0.00 | 0.00 | 58 | 1004.9 |
| 20260505222557 | 27 | 277 | 4.8 | 14.5 | 0.00 | 0.00 | 0.00 | 57 | 1004.9 |
| 20260505222056 | 28 | 344 | 4.8 | 14.5 | 0.00 | 0.00 | 0.00 | 57 | 1004.9 |
| 20260505221603 | 28 | 355 | 3.2 | 14.5 | 0.00 | 0.00 | 0.00 | 57 | 1004.7 |
| 20260505221055 | 28 | 10 | 3.2 | 16.1 | 0.00 | 0.00 | 0.00 | 55 | 1004.5 |
| 20260505220555 | 29 | 305 | 4.8 | 19.3 | 0.00 | 0.00 | 0.00 | 54 | 1004.5 |
| 20260505215554 | 30 | 276 | 3.2 | 14.5 | 0.00 | 0.00 | 0.00 | 54 | 1004.4 |
| 20260505215055 | 30 | 352 | 3.2 | 14.5 | 0.00 | 0.00 | 0.00 | 53 | 1004.1 |
| 20260505214559 | 29 | 269 | 6.4 | 17.7 | 0.00 | 0.00 | 0.00 | 53 | 1004.1 |
| 20260505214058 | 28 | 287 | 3.2 | 17.7 | 0.00 | 0.00 | 0.00 | 54 | 1004.2 |
| 20260505213554 | 29 | 65 | 4.8 | 17.7 | 0.00 | 0.00 | 0.00 | 52 | 1004.3 |
| 20260505213059 | 30 | 187 | 6.4 | 17.7 | 0.00 | 0.00 | 0.00 | 52 | 1004.3 |
| 20260505212554 | 30 | 343 | 4.8 | 19.3 | 0.00 | 0.00 | 0.00 | 51 | 1004.3 |
| 20260505212054 | 30 | 281 | 6.4 | 19.3 | 0.00 | 0.00 | 0.00 | 51 | 1004.2 |
| 20260505211556 | 31 | 259 | 6.4 | 17.7 | 0.00 | 0.00 | 0.00 | 47 | 1004.4 |
| 20260505211053 | 31 | 282 | 6.4 | 20.9 | 0.00 | 0.00 | 0.00 | 46 | 1004.3 |
| 20260505210554 | 31 | 275 | 6.4 | 20.9 | 0.00 | 0.00 | 0.00 | 45 | 1004.3 |
| 20260505210055 | 31 | 320 | 4.8 | 19.3 | 0.00 | 0.00 | 0.00 | 43 | 1004.5 |
| 20260505205555 | 31 | 300 | 4.8 | 19.3 | 0.00 | 0.00 | 0.00 | 43 | 1004.5 |
| 20260505205054 | 31 | 290 | 3.2 | 20.9 | 0.00 | 0.00 | 0.00 | 44 | 1004.4 |
| 20260505204553 | 30 | 34 | 4.8 | 20.9 | 0.00 | 0.00 | 0.00 | 42 | 1004.6 |
| 20260505204054 | 31 | 260 | 11.3 | 24.1 | 0.00 | 0.00 | 0.00 | 42 | 1004.6 |
| 20260505203554 | 31 | 281 | 8.0 | 24.1 | 0.00 | 0.00 | 0.00 | 43 | 1004.6 |
| 20260505203117 | 32 | 270 | 8.0 | 24.1 | 0.00 | 0.00 | 0.00 | 43 | 1004.5 |
| 20260505202557 | 32 | 293 | 8.0 | 24.1 | 0.00 | 0.00 | 0.00 | 44 | 1004.5 |
| 20260505202056 | 32 | 277 | 3.2 | 16.1 | 0.00 | 0.00 | 0.00 | 48 | 1004.3 |
| 20260505201605 | 32 | 289 | 3.2 | 14.5 | 0.00 | 0.00 | 0.00 | 49 | 1004.4 |
| 20260505201054 | 31 | 273 | 4.8 | 14.5 | 0.00 | 0.00 | 0.00 | 48 | 1004.5 |
| 20260505200554 | 32 | 285 | 6.4 | 20.9 | 0.00 | 0.00 | 0.00 | 49 | 1004.8 |
| 20260505200057 | 32 | 291 | 4.8 | 20.9 | 0.00 | 0.00 | 0.00 | 54 | 1004.8 |
| 20260505195555 | 32 | 242 | 1.6 | 8.0 | 0.00 | 0.00 | 0.00 | 55 | 1004.7 |
| 20260505195053 | 32 | 206 | 1.6 | 12.9 | 0.00 | 0.00 | 0.00 | 61 | 1004.6 |
| 20260505194553 | 32 | 248 | 4.8 | 16.1 | 0.00 | 0.00 | 0.00 | 56 | 1004.6 |
| 20260505194054 | 32 | 180 | 3.2 | 16.1 | 0.00 | 0.00 | 0.00 | 60 | 1004.5 |
| 20260505193555 | 31 | 305 | 3.2 | 14.5 | 0.00 | 0.00 | 0.00 | 56 | 1004.5 |
| 20260505193053 | 32 | 240 | 4.8 | 14.5 | 0.00 | 0.00 | 0.00 | 55 | 1004.7 |
| 20260505192557 | 32 | 219 | 3.2 | 12.9 | 0.00 | 0.00 | 0.00 | 55 | 1004.8 |
| 20260505192054 | 32 | 0 | 3.2 | 17.7 | 0.00 | 0.00 | 0.00 | 55 | 1004.8 |
| 20260505191603 | 32 | 221 | 3.2 | 19.3 | 0.00 | 0.00 | 0.00 | 54 | 1004.6 |
| 20260505191055 | 33 | 221 | 4.8 | 19.3 | 0.00 | 0.00 | 0.00 | 55 | 1004.5 |
| 20260505190554 | 32 | 246 | 3.2 | 17.7 | 0.00 | 0.00 | 0.00 | 56 | 1004.6 |
| 20260505190057 | 31 | 0 | 4.8 | 19.3 | 0.00 | 0.00 | 0.00 | 57 | 1004.5 |
| 20260505185554 | 31 | 215 | 4.8 | 19.3 | 0.00 | 0.00 | 0.00 | 58 | 1004.5 |
| 20260505185055 | 31 | 270 | 6.4 | 19.3 | 0.00 | 0.00 | 0.00 | 56 | 1004.5 |
| 20260505184555 | 31 | 232 | 4.8 | 17.7 | 0.00 | 0.00 | 0.00 | 58 | 1004.5 |
| 20260505184055 | 31 | 234 | 4.8 | 17.7 | 0.00 | 0.00 | 0.00 | 57 | 1004.4 |
| 20260505183555 | 31 | 225 | 3.2 | 19.3 | 0.00 | 0.00 | 0.00 | 60 | 1004.4 |
| 20260505183053 | 31 | 180 | 6.4 | 22.5 | 0.00 | 0.00 | 0.00 | 60 | 1004.5 |
| 20260505182554 | 31 | 232 | 4.8 | 22.5 | 0.00 | 0.00 | 0.00 | 61 | 1004.7 |
| 20260505182054 | 31 | 180 | 6.4 | 16.1 | 0.00 | 0.00 | 0.00 | 60 | 1004.6 |
| 20260505181553 | 30 | 183 | 3.2 | 16.1 | 0.00 | 0.00 | 0.00 | 62 | 1004.6 |
| 20260505181055 | 30 | 172 | 6.4 | 16.1 | 0.00 | 0.00 | 0.00 | 63 | 1004.7 |
| 20260505180554 | 29 | 185 | 3.2 | 14.5 | 0.00 | 0.00 | 0.00 | 64 | 1004.7 |
| 20260505175555 | 29 | 175 | 4.8 | 16.1 | 0.00 | 0.00 | 0.00 | 62 | 1004.7 |
| 20260505175054 | 29 | 252 | 6.4 | 20.9 | 0.00 | 0.00 | 0.00 | 63 | 1004.7 |
| 20260505174555 | 29 | 229 | 4.8 | 20.9 | 0.00 | 0.00 | 0.00 | 65 | 1004.8 |
| 20260505174054 | 28 | 223 | 4.8 | 16.1 | 0.00 | 0.00 | 0.00 | 65 | 1004.7 |
| 20260505173554 | 28 | 216 | 4.8 | 24.1 | 0.00 | 0.00 | 0.00 | 66 | 1004.8 |
| 20260505173057 | 28 | 190 | 8.0 | 25.7 | 0.00 | 0.00 | 0.00 | 65 | 1004.7 |
| 20260505172553 | 28 | 155 | 9.7 | 25.7 | 0.00 | 0.00 | 0.00 | 66 | 1004.7 |
| 20260505172053 | 27 | 250 | 9.7 | 22.5 | 0.00 | 0.00 | 0.00 | 67 | 1004.6 |
| 20260505171552 | 27 | 237 | 8.0 | 19.3 | 0.00 | 0.00 | 0.00 | 66 | 1004.6 |
| 20260505171055 | 27 | 216 | 6.4 | 19.3 | 0.00 | 0.00 | 0.00 | 69 | 1004.7 |
| 20260505170555 | 27 | 173 | 6.4 | 16.1 | 0.00 | 0.00 | 0.00 | 69 | 1004.6 |
| 20260505170108 | 27 | 173 | 6.4 | 16.1 | 0.00 | 0.00 | 0.00 | 69 | 1004.7 |
| 20260505165554 | 26 | 207 | 4.8 | 14.5 | 0.00 | 0.00 | 0.00 | 71 | 1004.7 |
| 20260505165057 | 26 | 165 | 3.2 | 16.1 | 0.00 | 0.00 | 0.00 | 72 | 1004.8 |
| 20260505164554 | 26 | 180 | 3.2 | 24.1 | 0.00 | 0.00 | 0.00 | 72 | 1004.8 |
| 20260505164054 | 26 | 260 | 6.4 | 24.1 | 0.00 | 0.00 | 0.00 | 71 | 1004.5 |
| 20260505163554 | 26 | 213 | 6.4 | 24.1 | 0.00 | 0.00 | 0.00 | 71 | 1004.8 |
| 20260505163053 | 26 | 232 | 6.4 | 24.1 | 0.00 | 0.00 | 0.00 | 71 | 1004.7 |
| 20260505162554 | 26 | 226 | 6.4 | 16.1 | 0.00 | 0.00 | 0.00 | 72 | 1004.7 |
| 20260505162057 | 26 | 269 | 3.2 | 20.9 | 0.00 | 0.00 | 0.00 | 72 | 1004.7 |
| 20260505161613 | 25 | 180 | 4.8 | 20.9 | 0.00 | 0.00 | 0.00 | 72 | 1004.5 |
| 20260505161054 | 25 | 190 | 4.8 | 24.1 | 0.00 | 0.00 | 0.00 | 72 | 1004.6 |
| 20260505160555 | 25 | 150 | 8.0 | 24.1 | 0.00 | 0.00 | 0.00 | 71 | 1004.6 |
| 20260505153102 | 26 | 287 | 6.4 | 27.4 | 0.00 | 0.00 | 0.00 | 72 | 1004.2 |
| 20260505152556 | 26 | 232 | 8.0 | 19.3 | 0.00 | 0.00 | 0.00 | 71 | 1004.3 |
| 20260505152054 | 26 | 251 | 6.4 | 19.3 | 0.00 | 0.00 | 0.00 | 73 | 1004.4 |
| 20260505151604 | 25 | 234 | 8.0 | 22.5 | 0.00 | 0.00 | 0.00 | 74 | 1004.3 |
| 20260505151057 | 25 | 188 | 8.0 | 22.5 | 0.00 | 0.00 | 0.00 | 75 | 1004.2 |
| 20260505150554 | 24 | 186 | 8.0 | 22.5 | 0.00 | 0.00 | 0.00 | 75 | 1004.4 |
| 20260505140555 | 22 | 215 | 9.7 | 27.4 | 0.00 | 0.00 | 0.00 | 81 | 1004.0 |
| 20260505140105 | 22 | 352 | 9.7 | 27.4 | 0.00 | 0.00 | 0.00 | 82 | 1004.2 |
| 20260505124556 | 21 | 144 | 3.2 | 19.3 | 0.00 | 0.00 | 0.00 | 86 | 1003.9 |
| 20260505124055 | 20 | 196 | 4.8 | 19.3 | 0.00 | 0.00 | 0.00 | 86 | 1003.9 |
| 20260505123554 | 20 | 201 | 4.8 | 17.7 | 0.00 | 0.00 | 0.00 | 86 | 1003.8 |
| 20260505123054 | 20 | 224 | 8.0 | 17.7 | 0.00 | 0.00 | 0.00 | 86 | 1003.7 |
| 20260505122556 | 20 | 225 | 6.4 | 17.7 | 0.00 | 0.00 | 0.00 | 87 | 1003.5 |
| 20260505122054 | 20 | 189 | 8.0 | 17.7 | 0.00 | 0.00 | 0.00 | 86 | 1003.4 |
| 20260505121625 | 20 | 174 | 6.4 | 19.3 | 0.00 | 0.00 | 0.00 | 87 | 1003.3 |
| 20260505121055 | 20 | 169 | 6.4 | 19.3 | 0.00 | 0.00 | 0.00 | 86 | 1003.4 |
| 20260505120556 | 20 | 192 | 6.4 | 19.3 | 0.00 | 0.00 | 0.00 | 86 | 1003.3 |
| 20260505120057 | 20 | 164 | 6.4 | 22.5 | 0.00 | 0.00 | 0.00 | 86 | 1003.4 |
| 20260505115557 | 20 | 216 | 8.0 | 22.5 | 0.00 | 0.00 | 0.00 | 86 | 1003.5 |
| 20260505115058 | 20 | 219 | 4.8 | 16.1 | 0.00 | 0.00 | 0.00 | 86 | 1003.4 |
| 20260505114600 | 20 | 199 | 6.4 | 17.7 | 0.00 | 0.00 | 0.00 | 86 | 1003.3 |
| 20260505114055 | 20 | 256 | 6.4 | 17.7 | 0.00 | 0.00 | 0.00 | 86 | 1003.3 |
| 20260505113554 | 20 | 167 | 4.8 | 19.3 | 0.00 | 0.00 | 0.00 | 86 | 1003.3 |
| 20260505113101 | 20 | 224 | 6.4 | 19.3 | 0.00 | 0.00 | 0.00 | 86 | 1003.2 |
| 20260505112555 | 20 | 194 | 4.8 | 12.9 | 0.00 | 0.00 | 0.00 | 86 | 1003.3 |
| 20260505112055 | 20 | 164 | 3.2 | 12.9 | 0.00 | 0.00 | 0.00 | 86 | 1003.2 |
| 20260505111557 | 20 | 191 | 6.4 | 14.5 | 0.00 | 0.00 | 0.00 | 86 | 1003.2 |
| 20260505111055 | 20 | 175 | 4.8 | 14.5 | 0.00 | 0.00 | 0.00 | 85 | 1003.1 |
| 20260505110557 | 20 | 192 | 4.8 | 16.1 | 0.00 | 0.00 | 0.00 | 85 | 1003.2 |
| 20260505102056 | 21 | 163 | 4.8 | 27.4 | 0.00 | 0.00 | 0.00 | 83 | 1003.1 |
| 20260505101559 | 21 | 167 | 6.4 | 27.4 | 0.00 | 0.00 | 0.00 | 83 | 1003.3 |
| 20260505101056 | 21 | 207 | 6.4 | 16.1 | 0.00 | 0.00 | 0.00 | 83 | 1003.2 |
| 20260505100556 | 21 | 181 | 6.4 | 16.1 | 0.00 | 0.00 | 0.00 | 83 | 1003.3 |
| 20260505100101 | 21 | 195 | 4.8 | 20.9 | 0.00 | 0.00 | 0.00 | 82 | 1003.3 |
| 20260505095556 | 21 | 183 | 9.7 | 20.9 | 0.00 | 0.00 | 0.00 | 82 | 1003.4 |
| 20260505095056 | 21 | 180 | 4.8 | 24.1 | 0.00 | 0.00 | 0.00 | 82 | 1003.3 |
| 20260505094557 | 21 | 221 | 4.8 | 24.1 | 0.00 | 0.00 | 0.00 | 82 | 1003.3 |
| 20260505094055 | 21 | 179 | 6.4 | 24.1 | 0.00 | 0.00 | 0.00 | 81 | 1003.2 |
| 20260505093555 | 21 | 199 | 8.0 | 22.5 | 0.00 | 0.00 | 0.00 | 81 | 1003.1 |
| 20260505093056 | 21 | 211 | 6.4 | 20.9 | 0.00 | 0.00 | 0.00 | 81 | 1003.1 |
| 20260505092601 | 21 | 191 | 4.8 | 20.9 | 0.00 | 0.00 | 0.00 | 81 | 1003.1 |
| 20260505092055 | 21 | 151 | 4.8 | 27.4 | 0.00 | 0.00 | 0.00 | 80 | 1003.2 |
| 20260505091557 | 21 | 213 | 6.4 | 27.4 | 0.00 | 0.00 | 0.00 | 80 | 1003.3 |
| 20260505091059 | 21 | 15 | 6.4 | 27.4 | 0.00 | 0.00 | 0.00 | 80 | 1003.4 |
| 20260505090555 | 22 | 198 | 8.0 | 20.9 | 0.00 | 0.00 | 0.00 | 80 | 1003.5 |
| 20260505090105 | 22 | 197 | 6.4 | 22.5 | 0.00 | 0.00 | 0.00 | 80 | 1003.4 |
| 20260505085555 | 22 | 150 | 8.0 | 24.1 | 0.00 | 0.00 | 0.00 | 79 | 1003.6 |
| 20260505085055 | 22 | 161 | 8.0 | 24.1 | 0.00 | 0.00 | 0.00 | 79 | 1003.5 |
| 20260505084556 | 22 | 186 | 9.7 | 22.5 | 0.00 | 0.00 | 0.00 | 78 | 1003.5 |
| 20260505084056 | 22 | 211 | 8.0 | 20.9 | 0.00 | 0.00 | 0.00 | 78 | 1003.5 |
| 20260505083622 | 22 | 186 | 4.8 | 22.5 | 0.00 | 0.00 | 0.00 | 78 | 1003.5 |
| 20260505083100 | 22 | 91 | 8.0 | 29.0 | 0.00 | 0.00 | 0.00 | 77 | 1003.5 |
| 20260505082554 | 22 | 144 | 9.7 | 29.0 | 0.00 | 0.00 | 0.00 | 77 | 1003.6 |
| 20260505082055 | 22 | 200 | 6.4 | 27.4 | 0.00 | 0.00 | 0.00 | 77 | 1003.6 |
| 20260505081558 | 22 | 166 | 8.0 | 27.4 | 0.00 | 0.00 | 0.00 | 76 | 1003.6 |
| 20260505081058 | 22 | 215 | 9.7 | 25.7 | 0.00 | 0.00 | 0.00 | 76 | 1003.5 |
| 20260505080556 | 22 | 184 | 8.0 | 25.7 | 0.00 | 0.00 | 0.00 | 76 | 1003.6 |
| 20260505080055 | 22 | 147 | 9.7 | 24.1 | 0.00 | 0.00 | 0.00 | 76 | 1003.6 |
| 20260505075554 | 22 | 209 | 8.0 | 27.4 | 0.00 | 0.00 | 0.00 | 75 | 1003.6 |
| 20260505075054 | 22 | 168 | 6.4 | 29.0 | 0.00 | 0.00 | 0.00 | 75 | 1003.8 |
| 20260505074553 | 22 | 185 | 9.7 | 29.0 | 0.00 | 0.00 | 0.00 | 75 | 1003.8 |
| 20260505074054 | 22 | 169 | 4.8 | 20.9 | 0.00 | 0.00 | 0.00 | 75 | 1004.0 |
| 20260505073554 | 22 | 184 | 8.0 | 25.7 | 0.00 | 0.00 | 0.00 | 75 | 1004.0 |
| 20260505073053 | 22 | 192 | 6.4 | 25.7 | 0.00 | 0.00 | 0.00 | 74 | 1004.2 |
| 20260505072558 | 22 | 171 | 8.0 | 24.1 | 0.00 | 0.00 | 0.00 | 74 | 1004.3 |
| 20260505072054 | 22 | 153 | 4.8 | 24.1 | 0.00 | 0.00 | 0.00 | 74 | 1004.4 |
| 20260505071554 | 22 | 189 | 6.4 | 24.1 | 0.00 | 0.00 | 0.00 | 73 | 1004.5 |
| 20260505071055 | 22 | 194 | 8.0 | 24.1 | 0.00 | 0.00 | 0.00 | 73 | 1004.5 |
| 20260505070555 | 22 | 157 | 4.8 | 17.7 | 0.00 | 0.00 | 0.00 | 73 | 1004.5 |
| 20260505070054 | 23 | 177 | 6.4 | 24.1 | 0.00 | 0.00 | 0.00 | 73 | 1004.5 |
| 20260505065555 | 23 | 182 | 4.8 | 24.1 | 0.00 | 0.00 | 0.00 | 73 | 1004.6 |
| 20260505065054 | 23 | 200 | 6.4 | 17.7 | 0.00 | 0.00 | 0.00 | 73 | 1004.7 |
| 20260505064558 | 23 | 209 | 6.4 | 16.1 | 0.00 | 0.00 | 0.00 | 73 | 1004.8 |
| 20260505064054 | 23 | 182 | 3.2 | 20.9 | 0.00 | 0.00 | 0.00 | 72 | 1004.9 |
| 20260505063556 | 23 | 228 | 4.8 | 22.5 | 0.00 | 0.00 | 0.00 | 72 | 1005.0 |
| 20260505063055 | 23 | 202 | 8.0 | 22.5 | 0.00 | 0.00 | 0.00 | 72 | 1005.0 |
| 20260505062554 | 23 | 182 | 8.0 | 25.7 | 0.00 | 0.00 | 0.00 | 72 | 1005.0 |
| 20260505062053 | 23 | 158 | 8.0 | 25.7 | 0.00 | 0.00 | 0.00 | 72 | 1005.0 |
| 20260505061557 | 23 | 188 | 6.4 | 22.5 | 0.00 | 0.00 | 0.00 | 73 | 1004.9 |
| 20260505061054 | 23 | 210 | 6.4 | 19.3 | 0.00 | 0.00 | 0.00 | 73 | 1005.1 |
| 20260505060554 | 23 | 200 | 6.4 | 19.3 | 0.00 | 0.00 | 0.00 | 73 | 1005.1 |
| 20260505060059 | 23 | 198 | 6.4 | 16.1 | 0.00 | 0.00 | 0.00 | 73 | 1005.1 |
| 20260505055554 | 22 | 203 | 3.2 | 20.9 | 0.00 | 0.00 | 0.00 | 73 | 1005.1 |
| 20260505055055 | 22 | 169 | 6.4 | 20.9 | 0.00 | 0.00 | 0.00 | 74 | 1005.1 |
| 20260505054558 | 22 | 215 | 4.8 | 14.5 | 0.00 | 0.00 | 0.00 | 74 | 1005.1 |
| 20260505054054 | 22 | 187 | 3.2 | 12.9 | 0.00 | 0.00 | 0.00 | 74 | 1005.1 |
| 20260505053555 | 22 | 185 | 3.2 | 16.1 | 0.00 | 0.00 | 0.00 | 74 | 1005.0 |
| 20260505053108 | 22 | 231 | 4.8 | 16.1 | 0.00 | 0.00 | 0.00 | 74 | 1005.1 |
| 20260505052557 | 22 | 209 | 1.6 | 16.1 | 0.00 | 0.00 | 0.00 | 74 | 1005.0 |
| 20260505052054 | 22 | 188 | 3.2 | 20.9 | 0.00 | 0.00 | 0.00 | 74 | 1005.1 |
| 20260505051607 | 22 | 0 | 1.6 | 20.9 | 0.00 | 0.00 | 0.00 | 75 | 1005.0 |
| 20260505051055 | 22 | 180 | 1.6 | 14.5 | 0.00 | 0.00 | 0.00 | 75 | 1005.1 |
| 20260505050554 | 22 | 0 | 3.2 | 14.5 | 0.00 | 0.00 | 0.00 | 75 | 1005.1 |
| 20260505041559 | 22 | 221 | 3.2 | 25.7 | 0.00 | 0.00 | 0.00 | 73 | 1005.4 |
| 20260505041054 | 23 | 202 | 4.8 | 25.7 | 0.00 | 0.00 | 0.00 | 73 | 1005.4 |
| 20260505040557 | 23 | 211 | 3.2 | 14.5 | 0.00 | 0.00 | 0.00 | 73 | 1005.5 |
| 20260505040056 | 23 | 208 | 3.2 | 17.7 | 0.00 | 0.00 | 0.00 | 73 | 1005.4 |